Showing default

CINEMA 3, 39426

Orbit data source: Space-Track

CINEMA 3, 39426 is a payload satellite owned by Kyung Hee U (US) in SSO that was launched on Thu, 21 Nov 2013 UTC via a DNEPR launch vehicle from the Orenburg, Russia (OREN). Payload-class satellites include a variety of spacecraft equipped with specific instruments for various scientific and technological missions. These include communications satellites like Starlink; space stations such as the ISS; scientific satellites like the Hubble; Earth observation satellites from companies like Planet Labs, Umbra, and HawkEye 360; GPS; miniature CubeSats for education and research; and military/defense satellites.

Loading next visibility...
Identifier
39426, 2013-066L
Orbit
SSO
Country
Flag of USUS
Related business
Manufacturer
KHUS/UCB
Mission
Non-operational Amateur Science
Bus & Motor
CUBESAT 3U, Unknown motor
Mass
4 kg wet, 4 kg dry
Launch date (UTC)
2013-11-21 (12 years ago)
Launch vehicle
DNEPR
Launch site
Orenburg, Russia (OREN)
Object type
Payload
Rocket body
Debris
Shape & HBR
Box + 1 Rod, 0.3 m
Radar Cross Section
0.035 m², Small (<0.1 m²)

Expand to show TLE details & history
Last TLE update: 8 hours ago

TLE from 8 hours ago
0 CINEMA 3
1 39426U 13066L   26037.76162853  .00002812  00000-0  37318-3 0  9994
2 39426  97.8445 313.3717 0089082 275.1116  83.9932 14.77884221655181
Epoch: 2026-02-06T18:16Z
TLE epoch observation values (Epoch: 2026-02-06T18:16:44.704Z)
Latitude
-0.00009°
Longitude
-97.70942°
Altitude
633.042 km
Speed
7.545 km/s
True Right ascension
20h 53m 29s
True Declination
0° 00' 00"
Sunlit
Object was in daylight at epoch
Visualization orbit readout
Latitude
Unknown
Longitude
Unknown
Altitude
Unknown
Speed
Unknown
Apparent Right ascension
Unknown
Apparent Declination
Unknown
Sunlit
N/A
Visualization observer readout
Local Sidereal Time
04:32:02
Azimuth
Unknown
Elevation
Unknown
Doppler factor
Unknown
Orbital elements
Apogee altitude
695.509 km
Perigee altitude
570.594 km
Semi-major axis
7,011.188 km
Eccentricity
0.00891
Inclination
97.8445°
RAAN
313.3717°
Arg. of periapsis
275.1116°
True anomaly
85.00953°
Mean anomaly
83.9932°
Eccentric anomaly
84.50125°
Mean motion
3.69705 °/min
Orbital period
97.37 mins
BSTAR
0.00037318
Loading maneuver chart data...
Computing Atmospheric mass density...
Loading historical data...
Loading historical data...
Loading historical data...
Loading historical data...
Loading historical data...
Loading historical data...
Loading historical data...

Documentation

Showing up to 5 results
|